Regional Weather Roundup
Issued by NWS Bismarck, ND

Home | Current Version | Previous Version | Text Only | Print | Product List | Glossary On
Versions: 1 2 3 4 5 6 7 8 9 10 11 12 13 14 15 16 17 18 19 20 21 22 23 24 25 26 27 28 29 30 31 32 33 34 35 36 37 38 39 40 41 42 43 44 45 46 47 48 49 50
000
ASUS43 KBIS 211310
RWRBIS

NWR BROADCAST TEXT
NATIONAL WEATHER SERVICE BISMARCK ND
800 AM CDT THU SEP 21 2017

NOTE: "FAIR" INDICATES FEW OR NO CLOUDS BELOW 12,000 FEET WITH NO
SIGNIFICANT WEATHER AND/OR OBSTRUCTIONS TO VISIBILITY.


CITY           SKY/WX    TMP DP  RH WIND       PRES   REMARKS
WILLISTON      CLOUDY    48  41  76 CALM      29.67S
MINOT          CLOUDY    54  43  66 N5        29.66R
MINOT AFB      CLOUDY    52  44  75 NE3       29.65R
BISMARCK       PTCLDY    59  46  62 SE17      29.68F
DICKINSON      PTCLDY    53  42  66 CALM      29.64R
GARRISON         N/A     55  44  66 VRB5      29.65F
HETTINGER ARPT CLOUDY    56  38  50 SE9       29.66S
JAMESTOWN      CLOUDY    54  47  77 S10       29.78R
CARRINGTON     PTSUNNY   54  48  82 S20       29.76R
LINTON         FAIR      55  43  62 SE15G23   29.74S
$$

CITY           SKY/WX    TMP DP  RH WIND       PRES   REMARKS
GRAND FORKS    CLOUDY    58  49  72 S17G25    29.80F
GRAND FORKS AF CLOUDY    57  46  67 S15G22    29.79F
DEVILS LAKE    CLOUDY    56  47  71 SE10      29.76R
FARGO          PTCLDY    56  48  74 S16G25    29.85F
CAVALIER       FAIR      52  46  82 S9G16     29.77S
GWINNER        SUNNY     54  46  76 SE9       29.82F
ROLLA          CLOUDY    52  41  66 SW6G17    29.72R
WALHALLA       FAIR     N/A N/A N/A S15       29.75S
$$

CITY           SKY/WX    TMP DP  RH WIND       PRES   REMARKS
ABERDEEN       CLEAR     51  48  89 S8        29.81F
MOBRIDGE       CLEAR     61  48  62 S20       29.69S
BUFFALO          N/A     58  39  49 N6        29.60R
RAPID CITY     CLEAR     54  37  54 S12       29.66S
GLASGOW        CLOUDY    44  37  76 W5        29.70R
SIDNEY         LGT RAIN  52  39  61 W7        29.69R
WOLF POINT     CLOUDY    51  39  63 W12       29.69R
GLENDIVE       LGT RAIN  52  41  66 NW12      29.70R
MILES CITY     LGT RAIN  49  42  77 NW10      29.71S
BAKER          CLOUDY    53  36  52 W12       29.69R
$$

CITY           SKY/WX    TMP DP  RH WIND       PRES   REMARKS
BILLINGS       LGT RAIN  46  45  96 NE6       29.76S
GREAT FALLS    CLOUDY    37  29  72 SW9       29.76R
REGINA         MOCLDY    34  30  86 SW5       29.67R
ESTEVAN        MOCLDY    45  39  81 W7        29.65S
$$





USA.gov is the U.S. government's official web portal to all federal, state and local government web resources and services.